QPF
0.00 0.00 0.00 0.00 0.00 0.00 0.00 0.00 0.00 0.00 0.00 0.00 0.00 0.00 0.00 0.00 0.00 0.00 0.00 0.00 0.00 0.00 0.00 0.00 0.00 0.00 0.00 0.00 0.00 0.00 0.00 0.00 0.00 0.00 0.00 0.00 0.00 0.00 0.00 0.00 0.00 0.00 0.00 0.00
0.00 0.00 0.00 0.00 0.00 0.00 0.00 0.00 0.00 0.00 0.00 0.00 0.00 0.00 0.00 0.00 0.00 0.00 0.00 0.00 0.00 0.00 0.00 0.00 0.00 0.00 0.00 0.00 0.00 0.00 0.00 0.00 0.00 0.00 0.00 0.00 0.00 0.00 0.00 0.00 0.00 0.00 0.00 0.01
0.00 0.00 0.00 0.00 0.00 0.00 0.00 0.00 0.00 0.00 0.00 0.00 0.00 0.00 0.00 0.00 0.00 0.00 0.00 0.00 0.00 0.00 0.00 0.00 0.00 0.00 0.00 0.00 0.00 0.00 0.00 0.00 0.00 0.00 0.00 0.00 0.00 0.00 0.00 0.00 0.00 0.00 0.01 0.01
0.00 0.00 0.00 0.00 0.00 0.00 0.00 0.00 0.00 0.00 0.00 0.00 0.00 0.00 0.00 0.00 0.00 0.00 0.00 0.00 0.00 0.00 0.00 0.00 0.00 0.00 0.00 0.00 0.00 0.00 0.00 0.00 0.00 0.00 0.00 0.00 0.00 0.00 0.00 0.00 0.00 0.00 0.00 0.01
0.00 0.00 0.00 0.00 0.00 0.00 0.00 0.00 0.00 0.00 0.00 0.00 0.00 0.00 0.00 0.00 0.00 0.00 0.00 0.00 0.00 0.00 0.00 0.00 0.00 0.00 0.00 0.00 0.00 0.00 0.00 0.00 0.00 0.00 0.00 0.00 0.00 0.00 0.00 0.00 0.00 0.00 0.00 0.01
0.01 0.00 0.00 0.00 0.00 0.00 0.00 0.00 0.00 0.00 0.00 0.00 0.00 0.00 0.00 0.00 0.00 0.00 0.00 0.00 0.00 0.00 0.00 0.00 0.00 0.00 0.00 0.00 0.00 0.00 0.00 0.00 0.00 0.00 0.00 0.00 0.00 0.00 0.00 0.00 0.01 0.01 0.01 0.00
0.01 0.01 0.00 0.00 0.00 0.00 0.00 0.00 0.00 0.00 0.00 0.00 0.00 0.00 0.00 0.00 0.00 0.00 0.00 0.00 0.00 0.00 0.00 0.00 0.00 0.00 0.00 0.00 0.00 0.00 0.00 0.00 0.00 0.00 0.00 0.00 0.00 0.00 0.01 0.01 0.01 0.01 0.00 0.00
0.00 0.01 0.01 0.00 0.00 0.00 0.00 0.00 0.00 0.00 0.00 0.00 0.00 0.00 0.00 0.00 0.00 0.00 0.00 0.00 0.00 0.00 0.00 0.00 0.00 0.00 0.00 0.00 0.00 0.00 0.00 0.00 0.00 0.00 0.00 0.02 0.03 0.04 0.03 0.01 0.00 0.00 0.00 0.00
0.01 0.00 0.01 0.00 0.00 0.00 0.00 0.00 0.00 0.00 0.00 0.00 0.00 0.00 0.00 0.00 0.00 0.00 0.00 0.00 0.00 0.00 0.00 0.00 0.00 0.00 0.00 0.00 0.00 0.00 0.00 0.00 0.01 0.02 0.03 0.03 0.02 0.01 0.00 0.00 0.00 0.00 0.00 0.01
0.00 0.00 0.00 0.00 0.00 0.00 0.00 0.00 0.00 0.00 0.00 0.00 0.00 0.00 0.00 0.00 0.00 0.00 0.00 0.00 0.00 0.00 0.00 0.00 0.00 0.00 0.00 0.00 0.00 0.00 0.00 0.01 0.01 0.02 0.03 0.01 0.00 0.00 0.00 0.00 0.00 0.01 0.01 0.03
0.00 0.00 0.00 0.00 0.00 0.00 0.00 0.00 0.00 0.00 0.00 0.00 0.00 0.00 0.00 0.00 0.00 0.00 0.00 0.00 0.00 0.00 0.00 0.01 0.02 0.00 0.00 0.00 0.00 0.01 0.01 0.00 0.00 0.00 0.00 0.00 0.00 0.00 0.00 0.01 0.02 0.01 0.01 0.04
0.00 0.00 0.00 0.00 0.00 0.00 0.00 0.00 0.00 0.00 0.00 0.00 0.00 0.00 0.00 0.00 0.00 0.00 0.00 0.00 0.00 0.00 0.00 0.00 0.00 0.00 0.00 0.01 0.01 0.02 0.01 0.02 0.02 0.02 0.01 0.01 0.01 0.01 0.03 0.03 0.04 0.04 0.04 0.03
0.00 0.00 0.00 0.00 0.00 0.00 0.00 0.00 0.00 0.00 0.00 0.00 0.00 0.00 0.00 0.00 0.00 0.00 0.00 0.00 0.00 0.00 0.01 0.02 0.03 0.02 0.03 0.04 0.05 0.05 0.06 0.04 0.02 0.02 0.02 0.03 0.04 0.03 0.03 0.06 0.08 0.09 0.09 0.08
0.00 0.00 0.00 0.00 0.00 0.00 0.00 0.00 0.00 0.00 0.00 0.00 0.00 0.00 0.00 0.00 0.00 0.00 0.00 0.00 0.00 0.00 0.00 0.01 0.03 0.07 0.14 0.20 0.22 0.18 0.15 0.17 0.14 0.12 0.13 0.15 0.15 0.13 0.11 0.09 0.10 0.12 0.12 0.10
0.00 0.00 0.00 0.00 0.00 0.00 0.00 0.00 0.00 0.00 0.00 0.01 0.07 0.10 0.10 0.10 0.12 0.11 0.09 0.02 0.00 0.00 0.00 0.00 0.00 0.01 0.02 0.05 0.11 0.16 0.19 0.22 0.26 0.28 0.28 0.24 0.19 0.14 0.12 0.11 0.11 0.12 0.10 0.08
0.00 0.00 0.00 0.00 0.00 0.00 0.00 0.00 0.01 0.01 0.01 0.01 0.03 0.06 0.11 0.14 0.12 0.09 0.06 0.02 0.00 0.01 0.01 0.00 0.01 0.02 0.02 0.01 0.02 0.04 0.11 0.18 0.23 0.26 0.25 0.22 0.18 0.14 0.12 0.09 0.07 0.06 0.05 0.04
0.00 0.00 0.00 0.00 0.00 0.00 0.00 0.00 0.01 0.02 0.03 0.04 0.06 0.07 0.08 0.10 0.11 0.09 0.04 0.03 0.01 0.02 0.01 0.02 0.04 0.03 0.02 0.02 0.01 0.03 0.05 0.06 0.07 0.07 0.08 0.08 0.08 0.07 0.06 0.05 0.03 0.02 0.02 0.02
0.00 0.00 0.00 0.00 0.00 0.01 0.02 0.02 0.03 0.05 0.08 0.08 0.08 0.09 0.08 0.06 0.05 0.04 0.04 0.03 0.01 0.01 0.02 0.03 0.03 0.02 0.01 0.01 0.01 0.01 0.01 0.01 0.01 0.02 0.02 0.02 0.02 0.02 0.01 0.01 0.01 0.01 0.01 0.00
0.00 0.00 0.00 0.00 0.01 0.01 0.01 0.02 0.03 0.05 0.06 0.07 0.06 0.06 0.05 0.04 0.03 0.03 0.02 0.01 0.00 0.01 0.03 0.02 0.02 0.01 0.01 0.01 0.00 0.00 0.00 0.00 0.00 0.00 0.00 0.01 0.00 0.00 0.01 0.00 0.00 0.00 0.00 0.00
0.01 0.01 0.01 0.01 0.01 0.01 0.02 0.02 0.02 0.03 0.04 0.04 0.03 0.03 0.03 0.03 0.03 0.02 0.01 0.01 0.01 0.02 0.02 0.01 0.00 0.00 0.00 0.00 0.00 0.00 0.00 0.00 0.00 0.00 0.00 0.00 0.00 0.00 0.00 0.00 0.00 0.00 0.00 0.00
0.01 0.02 0.02 0.02 0.03 0.03 0.03 0.03 0.03 0.03 0.04 0.04 0.03 0.03 0.02 0.03 0.02 0.02 0.01 0.01 0.02 0.01 0.00 0.00 0.00 0.00 0.00 0.00 0.00 0.00 0.00 0.00 0.00 0.00 0.00 0.00 0.00 0.00 0.00 0.00 0.00 0.00 0.00 0.00
0.03 0.03 0.03 0.03 0.03 0.03 0.04 0.04 0.04 0.04 0.04 0.04 0.03 0.03 0.02 0.02 0.01 0.00 0.00 0.00 0.00 0.00 0.00 0.00 0.00 0.00 0.00 0.00 0.00 0.00 0.00 0.00 0.00 0.00 0.00 0.00 0.00 0.00 0.00 0.00 0.00 0.00 0.00 0.00
0.04 0.04 0.04 0.04 0.04 0.04 0.04 0.04 0.04 0.03 0.03 0.02 0.02 0.01 0.00 0.00 0.00 0.00 0.00 0.00 0.00 0.00 0.00 0.00 0.00 0.00 0.00 0.00 0.00 0.00 0.00 0.00 0.00 0.00 0.00 0.00 0.00 0.00 0.00 0.00 0.00 0.00 0.00 0.00
0.03 0.03 0.03 0.04 0.03 0.03 0.02 0.02 0.01 0.01 0.00 0.00 0.00 0.00 0.00 0.00 0.00 0.00 0.00 0.00 0.00 0.00 0.00 0.00 0.00 0.00 0.00 0.00 0.00 0.00 0.00 0.00 0.00 0.00 0.00 0.00 0.00 0.00 0.00 0.00 0.00 0.00 0.00 0.00
0.02 0.02 0.02 0.02 0.01 0.01 0.00 0.00 0.00 0.00 0.00 0.00 0.00 0.00 0.00 0.00 0.00 0.00 0.00 0.00 0.00 0.00 0.00 0.00 0.00 0.00 0.00 0.00 0.00 0.00 0.00 0.00 0.00 0.00 0.00 0.00 0.00 0.00 0.00 0.00 0.00 0.00 0.00 0.00
0.01 0.01 0.00 0.00 0.00 0.00 0.00 0.00 0.00 0.00 0.00 0.00 0.00 0.00 0.00 0.00 0.00 0.00 0.00 0.00 0.00 0.00 0.00 0.00 0.00 0.00 0.00 0.00 0.00 0.00 0.00 0.00 0.00 0.00 0.00 0.00 0.00 0.00 0.00 0.00 0.00 0.00 0.00 0.00
0.00 0.00 0.00 0.00 0.00 0.00 0.00 0.00 0.00 0.00 0.00 0.00 0.00 0.00 0.00 0.00 0.00 0.00 0.00 0.00 0.00 0.00 0.00 0.00 0.00 0.00 0.00 0.00 0.00 0.00 0.00 0.00 0.00 0.00 0.00 0.00 0.00 0.00 0.00 0.00 0.00 0.00 0.00 0.00
MSLP
1003.76 1003.26 1002.59 1001.97 1001.48 1000.96 1000.52 1000.38 1000.08 999.77 999.29 999.12 998.75 998.63 998.41 998.29 998.08 997.97 998.07 998.20 998.16 998.50 998.80 999.25 999.89 1000.44 1001.17 1001.86 1002.53 1003.33 1004.08 1004.42 1004.40 1005.15 1005.96 1006.72 1007.31 1007.86 1008.39 1008.85 1009.24 1009.69 1009.99 1010.06
1004.61 1003.78 1003.12 1002.44 1001.67 1001.11 1000.80 1000.64 1000.50 1000.29 999.82 999.42 999.19 999.21 998.99 998.81 998.27 997.89 997.83 997.77 997.72 997.80 997.94 998.07 998.62 999.22 999.89 1000.42 1001.10 1001.90 1002.42 1002.49 1003.41 1004.09 1004.68 1005.04 1005.78 1006.37 1007.03 1007.50 1007.91 1008.33 1008.53 1008.91
1005.33 1004.52 1003.71 1002.76 1001.62 1001.13 1000.97 1000.81 1000.70 1000.37 1000.42 1000.37 999.93 999.82 999.47 999.05 999.10 998.68 998.28 998.03 997.81 997.83 997.77 997.56 997.61 997.94 998.45 998.95 1000.02 1000.75 1001.02 1001.47 1002.13 1002.86 1003.40 1003.94 1004.51 1005.18 1005.60 1006.07 1006.88 1007.23 1007.50 1007.77
1006.06 1005.41 1004.00 1002.50 1001.98 1001.53 1001.37 1001.72 1001.66 1001.61 1001.77 1001.51 1001.27 1000.80 1000.44 1000.63 1000.35 999.92 999.11 998.44 998.02 997.87 997.71 997.67 997.82 997.52 997.63 998.00 998.48 999.27 999.86 1000.49 1001.08 1001.70 1002.20 1002.97 1003.67 1004.13 1004.62 1005.11 1005.54 1006.11 1006.62 1007.03
1006.08 1005.25 1003.91 1002.61 1002.37 1001.94 1001.79 1002.71 1002.78 1002.41 1002.36 1002.14 1001.69 1000.74 1000.56 1001.05 1001.02 1000.70 1000.07 999.22 998.41 998.12 998.09 997.92 997.85 997.72 997.61 997.45 997.79 998.13 998.60 999.06 999.77 1000.60 1001.29 1001.84 1002.36 1003.09 1003.89 1004.58 1005.26 1005.65 1006.06 1006.55
1006.64 1005.30 1003.91 1002.71 1002.84 1002.84 1002.81 1002.62 1003.28 1003.27 1003.05 1002.88 1002.31 1001.42 1000.68 1001.29 1001.44 1001.04 1000.38 999.75 999.18 998.92 998.58 998.52 998.32 998.37 997.82 997.29 997.33 997.54 997.79 998.37 999.09 999.85 1000.46 1001.14 1001.76 1002.53 1003.47 1004.27 1005.17 1006.16 1006.87 1007.38
1006.47 1005.34 1003.94 1003.50 1003.63 1003.61 1003.36 1004.14 1004.09 1003.91 1003.65 1003.57 1003.24 1002.77 1002.16 1002.05 1001.91 1001.55 1001.27 1000.49 1000.16 999.79 999.22 999.33 999.24 998.95 998.34 998.00 997.83 997.85 998.06 998.35 999.07 999.81 1000.42 1001.01 1002.03 1003.46 1004.12 1004.98 1005.97 1007.07 1007.74 1008.34
1006.05 1005.41 1004.54 1004.06 1003.86 1004.05 1004.96 1004.93 1004.92 1004.65 1004.51 1004.52 1004.26 1003.43 1002.80 1002.45 1002.25 1001.88 1001.64 1001.32 1001.01 1000.67 1000.66 1000.38 1000.22 999.63 999.54 999.44 999.87 999.98 999.53 999.71 999.99 1000.79 1001.54 1002.17 1003.17 1003.91 1005.12 1006.08 1006.87 1007.38 1008.75 1009.49
1004.81 1004.51 1004.69 1004.73 1005.05 1005.73 1006.17 1006.24 1006.13 1006.05 1006.01 1005.83 1004.96 1004.07 1003.70 1003.04 1002.69 1002.62 1002.62 1002.63 1002.48 1002.01 1001.99 1002.28 1002.53 1001.90 1001.37 1001.27 1001.37 1001.59 1001.68 1001.84 1002.01 1002.29 1003.10 1003.61 1004.12 1004.73 1005.62 1006.70 1007.96 1008.12 1009.01 1009.98
1005.01 1004.73 1005.04 1005.60 1006.21 1006.69 1007.00 1007.26 1007.44 1007.34 1006.99 1006.80 1006.48 1005.82 1005.14 1004.41 1004.08 1003.96 1003.95 1004.36 1004.30 1003.89 1003.14 1003.52 1003.73 1004.10 1003.58 1003.03 1002.79 1002.83 1002.71 1003.15 1003.85 1003.88 1004.67 1005.38 1005.85 1006.30 1006.85 1007.26 1008.04 1008.85 1009.78 1010.50
1005.36 1005.39 1006.03 1006.83 1007.38 1008.07 1008.17 1008.22 1008.29 1008.33 1008.27 1008.17 1007.91 1007.29 1006.82 1006.32 1006.49 1006.40 1006.22 1006.39 1006.40 1005.92 1005.41 1005.26 1004.96 1005.34 1005.20 1004.84 1004.36 1004.67 1005.01 1005.02 1005.01 1005.24 1006.04 1006.82 1007.55 1008.17 1008.61 1008.85 1008.58 1009.18 1010.32 1011.10
1006.51 1007.85 1008.30 1008.30 1008.76 1009.34 1009.30 1009.26 1009.50 1009.61 1009.54 1009.50 1009.48 1009.03 1008.68 1008.47 1008.67 1008.56 1008.37 1007.73 1008.18 1008.40 1008.19 1007.57 1007.18 1007.15 1006.83 1005.91 1005.97 1006.32 1006.68 1006.93 1006.93 1006.73 1007.19 1008.11 1008.68 1009.77 1010.70 1010.02 1010.52 1010.91 1011.50 1012.14
1008.81 1009.37 1009.56 1009.64 1010.37 1010.76 1010.81 1010.87 1010.81 1010.91 1011.15 1011.16 1011.04 1010.94 1010.54 1010.51 1010.60 1010.70 1010.46 1009.81 1009.91 1009.65 1010.02 1010.05 1009.84 1009.25 1008.20 1008.02 1006.81 1007.21 1008.33 1008.96 1008.95 1008.86 1009.27 1009.38 1009.97 1009.40 1011.16 1012.72 1012.58 1012.67 1013.12 1013.65
1010.83 1010.71 1010.20 1010.93 1011.42 1011.89 1012.00 1011.94 1012.11 1012.37 1012.58 1012.77 1012.67 1012.65 1012.54 1012.49 1011.96 1012.56 1012.48 1012.01 1011.96 1011.09 1011.20 1011.63 1011.61 1010.95 1010.19 1009.64 1009.15 1008.76 1009.57 1010.15 1010.23 1010.82 1010.40 1010.58 1011.29 1011.74 1012.60 1012.81 1013.12 1014.23 1015.14 1015.46
1012.07 1012.28 1012.32 1012.20 1012.62 1013.01 1013.13 1013.12 1013.27 1013.60 1014.05 1014.11 1014.43 1014.59 1014.50 1014.33 1014.31 1014.17 1014.13 1013.96 1013.52 1012.50 1013.09 1013.11 1013.11 1012.76 1012.43 1011.85 1010.90 1010.81 1010.90 1011.31 1011.38 1011.07 1011.76 1012.15 1012.62 1013.08 1013.94 1014.16 1014.63 1015.64 1016.44 1016.91
1013.34 1012.89 1013.15 1013.30 1013.60 1013.86 1014.03 1014.25 1014.43 1014.85 1015.16 1015.51 1015.77 1016.09 1016.12 1015.94 1016.06 1015.53 1016.29 1015.84 1014.06 1014.97 1015.31 1014.78 1014.33 1014.30 1013.87 1013.34 1012.84 1012.83 1012.79 1012.82 1012.92 1013.20 1012.88 1013.39 1014.22 1014.35 1014.91 1015.58 1015.85 1016.65 1017.40 1017.70
1014.15 1013.57 1014.02 1014.09 1014.43 1014.80 1015.05 1015.22 1015.51 1015.98 1016.37 1016.68 1016.96 1017.39 1017.66 1017.69 1017.47 1016.83 1016.89 1017.13 1016.64 1017.14 1016.67 1016.40 1016.10 1015.57 1015.18 1014.81 1014.69 1014.64 1014.47 1014.84 1014.98 1014.53 1014.30 1015.51 1015.78 1016.05 1016.43 1016.76 1017.27 1018.17 1018.92 1019.29
1015.65 1015.63 1015.68 1015.52 1015.52 1015.89 1016.33 1016.69 1016.99 1017.44 1017.71 1018.08 1018.24 1018.69 1018.75 1018.94 1019.28 1019.05 1018.74 1018.39 1018.13 1018.19 1018.19 1018.20 1017.72 1016.99 1016.47 1016.18 1015.93 1016.79 1016.13 1016.37 1016.64 1016.33 1016.13 1016.70 1017.15 1017.54 1017.76 1017.96 1018.64 1019.47 1019.80 1020.30
1016.98 1016.97 1016.89 1016.81 1016.93 1017.19 1017.60 1018.05 1018.48 1018.84 1019.18 1019.31 1019.46 1019.70 1020.16 1020.50 1020.71 1020.34 1020.15 1019.45 1019.62 1019.53 1019.76 1019.54 1019.02 1018.45 1018.15 1018.19 1017.70 1018.00 1017.67 1017.68 1017.85 1018.13 1018.27 1018.37 1018.67 1018.75 1019.15 1019.49 1020.03 1020.21 1020.65 1020.97
1018.22 1018.30 1018.36 1018.40 1018.50 1018.73 1019.18 1019.59 1019.77 1019.99 1020.38 1020.49 1020.69 1020.82 1021.32 1021.68 1021.73 1021.73 1021.66 1021.20 1021.62 1021.52 1021.37 1020.96 1020.34 1020.03 1019.98 1019.74 1019.24 1019.34 1019.17 1019.24 1019.58 1019.87 1020.05 1020.33 1020.34 1020.38 1020.96 1021.22 1021.22 1021.65 1021.95 1022.14
1019.78 1019.88 1019.90 1019.93 1020.06 1020.36 1020.58 1020.87 1020.91 1021.15 1021.64 1021.84 1021.93 1022.29 1022.83 1023.21 1023.12 1022.67 1022.24 1022.38 1023.08 1022.87 1022.70 1022.48 1021.93 1021.56 1021.51 1021.13 1020.94 1020.89 1021.08 1021.36 1021.48 1021.52 1021.63 1021.86 1021.59 1021.79 1022.28 1022.38 1022.71 1023.10 1023.25 1023.23
1020.92 1020.98 1021.04 1021.13 1021.28 1021.52 1021.90 1022.11 1022.21 1022.36 1022.60 1022.87 1023.08 1023.26 1023.46 1023.70 1023.88 1023.98 1024.17 1024.14 1024.53 1024.39 1023.98 1023.73 1023.72 1023.65 1023.14 1022.63 1022.63 1022.56 1022.66 1022.80 1022.86 1022.91 1022.83 1022.90 1022.99 1023.29 1023.57 1023.65 1023.98 1024.21 1024.15 1024.17
1021.77 1021.87 1021.97 1022.14 1022.39 1022.65 1022.97 1023.25 1023.46 1023.58 1023.71 1023.99 1024.20 1024.28 1024.27 1024.46 1024.46 1024.47 1024.95 1025.53 1025.38 1025.43 1025.17 1025.37 1025.36 1024.94 1024.45 1024.13 1024.12 1024.22 1024.23 1024.24 1024.15 1024.29 1024.32 1024.43 1024.45 1024.53 1024.70 1024.93 1025.08 1025.16 1025.17 1025.20
1022.48 1022.60 1022.77 1023.06 1023.26 1023.39 1023.58 1024.02 1024.21 1024.47 1024.70 1024.99 1025.24 1025.29 1025.06 1025.27 1025.65 1025.92 1026.37 1026.73 1026.77 1026.64 1026.70 1026.69 1026.46 1026.06 1025.62 1025.51 1025.52 1025.49 1025.41 1025.42 1025.37 1025.36 1025.43 1025.54 1025.57 1025.79 1025.88 1025.97 1025.94 1025.88 1026.01 1026.03
1023.26 1023.40 1023.55 1023.64 1023.71 1023.98 1024.30 1024.68 1024.90 1025.18 1025.41 1025.68 1025.96 1026.27 1026.44 1026.52 1026.61 1027.08 1027.21 1027.47 1027.58 1027.26 1027.31 1027.57 1027.37 1027.05 1026.71 1026.63 1026.58 1026.48 1026.44 1026.62 1026.52 1026.25 1026.29 1026.38 1026.41 1026.44 1026.39 1026.44 1026.52 1026.57 1026.61 1026.56
1024.00 1024.19 1024.47 1024.59 1024.61 1024.67 1024.89 1025.04 1025.20 1025.60 1025.94 1026.42 1026.85 1027.16 1027.42 1027.58 1027.74 1027.77 1028.05 1028.09 1028.10 1028.02 1027.93 1027.97 1028.01 1027.62 1027.50 1027.46 1027.33 1027.31 1027.09 1027.04 1027.05 1027.14 1027.13 1027.06 1027.08 1026.99 1027.04 1027.10 1027.09 1027.08 1027.08 1027.05
1024.93 1024.94 1025.08 1025.38 1025.69 1025.87 1025.91 1025.91 1026.02 1026.49 1026.86 1027.12 1027.52 1027.86 1028.06 1028.23 1028.50 1028.43 1028.58 1028.52 1028.55 1028.55 1028.51 1028.47 1028.38 1028.40 1028.28 1028.08 1027.90 1027.75 1027.58 1027.50 1028.30 1027.72 1027.56 1027.52 1027.56 1027.47 1027.63 1027.64 1027.43 1027.33 1027.30 1027.41
Thickness
5565 5571 5579 5584 5590 5602 5607 5614 5608 5621 5624 5636 5647 5652 5658 5663 5669 5670 5672 5675 5681 5681 5682 5682 5679 5676 5672 5668 5664 5658 5652 5650 5651 5644 5639 5633 5627 5622 5618 5614 5611 5607 5604 5605
5554 5568 5575 5576 5590 5596 5602 5606 5607 5612 5616 5637 5644 5646 5646 5650 5657 5664 5668 5673 5678 5682 5684 5685 5682 5679 5674 5672 5668 5663 5659 5659 5651 5647 5641 5638 5633 5628 5623 5619 5615 5610 5609 5605
5543 5558 5563 5566 5585 5592 5595 5602 5604 5601 5610 5620 5625 5627 5633 5639 5641 5651 5660 5663 5667 5670 5674 5681 5685 5684 5679 5677 5669 5662 5661 5659 5654 5648 5644 5639 5634 5628 5625 5621 5614 5611 5608 5604
5535 5539 5538 5575 5586 5592 5590 5590 5594 5594 5594 5601 5605 5613 5620 5620 5624 5630 5644 5655 5661 5665 5669 5673 5675 5679 5681 5678 5674 5668 5663 5657 5653 5650 5645 5639 5633 5629 5625 5621 5617 5612 5608 5603
5531 5539 5558 5573 5575 5581 5582 5572 5578 5583 5587 5592 5600 5612 5614 5614 5616 5620 5628 5642 5653 5660 5662 5664 5666 5668 5670 5673 5671 5668 5666 5663 5658 5650 5643 5638 5634 5629 5623 5617 5613 5610 5603 5598
5517 5528 5538 5565 5566 5572 5573 5570 5574 5575 5576 5578 5586 5586 5602 5604 5606 5612 5620 5629 5635 5643 5648 5651 5654 5654 5658 5664 5666 5665 5666 5662 5657 5650 5644 5637 5632 5626 5618 5613 5602 5589 5582 5578
5512 5523 5541 5554 5553 5556 5555 5555 5561 5566 5568 5568 5569 5577 5588 5591 5594 5602 5605 5614 5620 5627 5633 5633 5636 5638 5645 5651 5652 5654 5654 5653 5648 5642 5636 5631 5622 5607 5599 5588 5577 5566 5560 5556
5508 5510 5517 5541 5548 5546 5539 5546 5549 5552 5555 5555 5558 5566 5574 5582 5584 5589 5593 5599 5603 5608 5610 5614 5618 5626 5629 5630 5625 5625 5631 5630 5628 5620 5611 5605 5594 5587 5575 5566 5558 5553 5540 5532
5519 5521 5525 5526 5527 5524 5523 5524 5530 5534 5536 5537 5547 5555 5557 5564 5570 5572 5574 5578 5582 5587 5588 5585 5584 5595 5603 5597 5598 5596 5596 5594 5593 5590 5583 5578 5573 5567 5558 5549 5536 5535 5526 5516
5513 5519 5519 5517 5515 5513 5513 5513 5514 5517 5523 5524 5525 5532 5537 5545 5548 5550 5552 5551 5555 5562 5568 5563 5559 5556 5563 5570 5573 5572 5573 5569 5564 5563 5556 5550 5545 5541 5534 5530 5523 5516 5507 5498
5511 5515 5510 5503 5503 5497 5500 5503 5503 5503 5504 5503 5504 5512 5515 5521 5515 5515 5517 5517 5520 5529 5535 5534 5536 5532 5533 5539 5545 5541 5539 5540 5539 5536 5528 5520 5513 5509 5505 5502 5503 5497 5486 5478
5505 5481 5476 5486 5486 5478 5483 5487 5486 5484 5484 5485 5483 5488 5490 5490 5486 5487 5488 5493 5487 5486 5489 5499 5503 5504 5505 5513 5515 5514 5510 5509 5509 5510 5505 5497 5491 5479 5470 5475 5469 5465 5458 5451
5475 5466 5466 5469 5460 5456 5458 5460 5464 5465 5462 5462 5463 5463 5466 5462 5458 5456 5458 5464 5461 5463 5460 5463 5467 5472 5478 5481 5492 5489 5481 5476 5476 5476 5473 5472 5465 5467 5452 5436 5435 5433 5428 5422
5441 5445 5461 5447 5444 5438 5439 5441 5440 5438 5436 5435 5438 5438 5439 5436 5438 5430 5430 5434 5435 5440 5438 5435 5437 5442 5450 5456 5457 5461 5453 5448 5448 5442 5445 5444 5438 5433 5424 5419 5415 5403 5393 5387
5423 5423 5424 5429 5424 5418 5419 5420 5418 5414 5409 5411 5409 5408 5408 5407 5406 5403 5405 5405 5409 5417 5411 5412 5410 5413 5417 5422 5427 5426 5424 5418 5417 5418 5413 5412 5407 5402 5394 5389 5384 5374 5364 5359
5405 5414 5409 5406 5402 5400 5399 5397 5396 5390 5388 5385 5383 5381 5382 5385 5381 5386 5378 5380 5392 5386 5382 5385 5388 5388 5390 5394 5397 5393 5392 5391 5392 5390 5392 5385 5377 5377 5372 5364 5359 5350 5340 5335
5389 5401 5393 5393 5387 5381 5378 5378 5377 5373 5368 5364 5362 5359 5357 5357 5361 5363 5360 5357 5360 5355 5360 5362 5363 5366 5368 5370 5369 5369 5368 5364 5362 5365 5366 5354 5350 5347 5341 5336 5330 5320 5310 5304
5367 5365 5363 5365 5368 5364 5359 5355 5353 5349 5346 5341 5338 5334 5335 5335 5333 5333 5335 5338 5339 5337 5337 5335 5338 5342 5346 5347 5348 5339 5343 5339 5335 5336 5338 5331 5325 5319 5315 5311 5302 5290 5284 5276
5346 5345 5344 5344 5342 5340 5337 5333 5329 5326 5322 5321 5318 5315 5312 5309 5308 5311 5312 5317 5315 5316 5312 5313 5315 5318 5318 5316 5319 5315 5315 5314 5312 5307 5303 5301 5296 5293 5286 5280 5272 5268 5260 5252
5326 5323 5322 5320 5318 5316 5312 5309 5308 5306 5303 5301 5298 5297 5292 5288 5287 5286 5285 5288 5285 5285 5285 5287 5291 5292 5290 5290 5292 5288 5287 5284 5279 5274 5271 5266 5263 5261 5252 5246 5243 5235 5228 5221
5303 5300 5298 5296 5295 5291 5290 5288 5288 5285 5282 5279 5277 5272 5267 5263 5264 5268 5271 5268 5259 5260 5260 5260 5263 5264 5262 5263 5262 5259 5254 5249 5245 5243 5239 5234 5234 5230 5221 5216 5210 5202 5196 5191
5287 5285 5282 5279 5276 5273 5269 5268 5267 5265 5263 5260 5257 5255 5251 5248 5245 5243 5240 5240 5235 5234 5236 5236 5234 5232 5234 5235 5232 5231 5227 5223 5219 5216 5214 5210 5205 5199 5192 5188 5180 5173 5169 5163
5272 5269 5265 5260 5257 5254 5251 5248 5246 5245 5243 5239 5236 5234 5233 5230 5230 5229 5224 5215 5214 5211 5212 5208 5205 5206 5208 5208 5205 5201 5199 5196 5193 5189 5185 5180 5176 5171 5165 5158 5151 5145 5138 5132
5257 5253 5249 5245 5241 5239 5237 5232 5230 5226 5223 5219 5215 5213 5215 5211 5206 5203 5197 5192 5190 5189 5186 5183 5183 5183 5184 5182 5178 5175 5173 5169 5166 5162 5157 5152 5147 5140 5134 5128 5124 5118 5111 5105
5243 5240 5236 5234 5232 5228 5222 5218 5214 5210 5207 5203 5199 5194 5190 5188 5186 5180 5176 5172 5169 5169 5166 5161 5160 5159 5159 5156 5152 5149 5146 5140 5137 5135 5130 5125 5120 5115 5111 5105 5100 5095 5090 5085
5230 5226 5221 5217 5216 5213 5209 5206 5202 5196 5191 5184 5178 5173 5168 5165 5161 5158 5153 5150 5148 5146 5144 5140 5136 5136 5133 5129 5126 5122 5120 5117 5114 5108 5104 5101 5097 5094 5090 5086 5081 5075 5070 5064
5212 5209 5205 5199 5193 5188 5186 5184 5180 5173 5167 5163 5156 5150 5146 5142 5137 5135 5131 5129 5126 5122 5120 5117 5114 5111 5108 5106 5104 5102 5100 5097 5091 5090 5087 5084 5079 5076 5071 5066 5063 5058 5053 5046